C/2019 E3 ( ATLAS )

Japanese version
Home page
Updated on January 20, 2020

---------------------------------------------------------------------

* Profile

Discovery Date March 5, 2019
Magnitude 18.4 mag
Discoverer Asteroid Terrestrial-Impact Last Alert System (ATLAS) search program

* Orbital Elements

Epoch 2023 Dec. 2.0 TT = JDT 2460280.5
T 2023 Nov. 15.27008 TT                                 Williams
q  10.3129499            (2000.0)            P               Q
z  +0.0001241      Peri.  280.69936     +0.15949524     +0.96239823
 +/-0.0000025      Node   347.23331     +0.26394337     -0.25620327
e   0.9987197      Incl.   84.29884     -0.95125978     +0.09027479
From 65 observations 2015 Jan. 22-2019 Dec. 22, mean residual 0".4.

* Magnitudes Graph

        m1 = 2.5 + 5 log d + 10.0 log r

---------------------------------------------------------------------

The orbital elements are published on M.P.E.C. 2020-A105.
The magnitudes graphs are made with Comet for Windows.

---------------------------------------------------------------------

Copyright(C) Seiichi Yoshida (comet@aerith.net). All rights reserved.